Powrót do katalogu

CZ-6A DEB

AktywnyPO
NORAD 54523·DEBRIS·🇨🇳 China

Wystrzelony Nov 11, 2022 z Taiyuan Satellite Launch Center

Loading…

Następne Przeloty (najbliższe 24 godziny)

TLE

ŚwieżeSource: Space-Track

Epoka: Sep 14, 2026, 06:16 UTC

1 54523U 22151KB  26257.26166753  .00031899  00000-0  20433-2 0  9992
2 54523  98.7107  17.2086 0053042 267.5439  91.9712 15.07306799205370

Śledź CZ-6A DEB w czasie rzeczywistym z AllMySat

Download on the App Store